| time (UTC) | temp C | wind direction | speed KPH | gust KPH | rain 1hr cm | rain 24hr cm | rain mn cm | humidity % | barometer mb |
| 20260903083908 | 12 | 299 | 16.1 | 25.7 | 0.00 | 0.00 | 0.00 | 68 | 1016.2 |
| 20260903082907 | 13 | 301 | 16.1 | 24.1 | 0.00 | 0.00 | 0.00 | 66 | 1016.2 |
| 20260903081907 | 13 | 294 | 16.1 | 25.7 | 0.00 | 0.00 | 0.00 | 63 | 1016.3 |
| 20260903080907 | 13 | 291 | 14.5 | 25.7 | 0.00 | 0.00 | 0.00 | 62 | 1016.4 |
| 20260903075907 | 13 | 271 | 20.9 | 32.2 | 0.00 | 0.00 | 0.00 | 60 | 1016.4 |
| 20260903074908 | 13 | 281 | 20.9 | 29.0 | 0.00 | 0.00 | 0.00 | 58 | 1016.5 |
| 20260903073907 | 13 | 287 | 20.9 | 29.0 | 0.00 | 0.00 | 0.00 | 58 | 1016.5 |
| 20260903072907 | 13 | 279 | 17.7 | 30.6 | 0.00 | 0.00 | 0.00 | 58 | 1016.5 |
| 20260903071907 | 13 | 290 | 17.7 | 30.6 | 0.00 | 0.00 | 0.00 | 59 | 1016.6 |
| 20260903070908 | 13 | 280 | 17.7 | 30.6 | 0.00 | 0.00 | 0.00 | 59 | 1016.6 |
| 20260903065908 | 13 | 292 | 19.3 | 27.4 | 0.00 | 0.00 | 0.00 | 60 | 1016.6 |
| 20260903064907 | 13 | 283 | 20.9 | 30.6 | 0.00 | 0.00 | 0.00 | 60 | 1016.6 |
| 20260903063907 | 13 | 282 | 22.5 | 30.6 | 0.00 | 0.00 | 0.00 | 58 | 1016.6 |
| 20260903062907 | 14 | 279 | 22.5 | 30.6 | 0.00 | 0.00 | 0.00 | 57 | 1016.6 |
| 20260903061908 | 13 | 283 | 22.5 | 30.6 | 0.00 | 0.00 | 0.00 | 56 | 1016.7 |
| 20260903060907 | 13 | 279 | 22.5 | 29.0 | 0.00 | 0.00 | 0.00 | 57 | 1016.6 |
| 20260903055907 | 14 | 273 | 17.7 | 30.6 | 0.00 | 0.00 | 0.00 | 56 | 1016.7 |
| 20260903054907 | 14 | 255 | 20.9 | 35.4 | 0.00 | 0.00 | 0.00 | 52 | 1016.7 |
| 20260903053907 | 15 | 273 | 20.9 | 30.6 | 0.00 | 0.00 | 0.00 | 50 | 1016.5 |
| 20260903052907 | 15 | 274 | 17.7 | 30.6 | 0.00 | 0.00 | 0.00 | 50 | 1016.5 |
| 20260903051907 | 15 | 266 | 17.7 | 29.0 | 0.00 | 0.00 | 0.00 | 49 | 1016.6 |
| 20260903050907 | 15 | 280 | 19.3 | 30.6 | 0.00 | 0.00 | 0.00 | 49 | 1016.5 |
| 20260903045907 | 15 | 277 | 19.3 | 27.4 | 0.00 | 0.00 | 0.00 | 49 | 1016.6 |
| 20260903044907 | 15 | 280 | 20.9 | 27.4 | 0.00 | 0.00 | 0.00 | 49 | 1016.7 |
| 20260903043907 | 15 | 289 | 19.3 | 27.4 | 0.00 | 0.00 | 0.00 | 48 | 1016.8 |
| 20260903042908 | 15 | 282 | 17.7 | 25.7 | 0.00 | 0.00 | 0.00 | 48 | 1016.9 |
| 20260903041907 | 15 | 278 | 17.7 | 24.1 | 0.00 | 0.00 | 0.00 | 48 | 1016.9 |
| 20260903040907 | 15 | 280 | 14.5 | 24.1 | 0.00 | 0.00 | 0.00 | 47 | 1016.8 |
| 20260903035907 | 15 | 285 | 14.5 | 22.5 | 0.00 | 0.00 | 0.00 | 47 | 1016.8 |
| 20260903034908 | 15 | 280 | 14.5 | 22.5 | 0.00 | 0.00 | 0.00 | 47 | 1016.7 |
| 20260903033908 | 15 | 286 | 12.9 | 20.9 | 0.00 | 0.00 | 0.00 | 47 | 1016.7 |
| 20260903032910 | 15 | 288 | 16.1 | 22.5 | 0.00 | 0.00 | 0.00 | 47 | 1016.7 |
| 20260903031907 | 15 | 292 | 12.9 | 20.9 | 0.00 | 0.00 | 0.00 | 48 | 1016.5 |
| 20260903030907 | 15 | 289 | 9.7 | 22.5 | 0.00 | 0.00 | 0.00 | 50 | 1016.6 |
| 20260903025911 | 15 | 290 | 12.9 | 24.1 | 0.00 | 0.00 | 0.00 | 50 | 1016.5 |
| 20260903024907 | 15 | 294 | 14.5 | 22.5 | 0.00 | 0.00 | 0.00 | 50 | 1016.4 |
| 20260903023907 | 15 | 295 | 14.5 | 22.5 | 0.00 | 0.00 | 0.00 | 51 | 1016.3 |
| 20260903022907 | 15 | 299 | 12.9 | 19.3 | 0.00 | 0.00 | 0.00 | 51 | 1016.2 |
| 20260903021907 | 15 | 302 | 9.7 | 20.9 | 0.00 | 0.00 | 0.00 | 52 | 1016.3 |
| 20260903020907 | 15 | 302 | 12.9 | 19.3 | 0.00 | 0.00 | 0.00 | 52 | 1016.1 |
| 20260903015908 | 15 | 300 | 11.3 | 19.3 | 0.00 | 0.00 | 0.00 | 51 | 1016.1 |
| 20260903014907 | 15 | 300 | 9.7 | 19.3 | 0.00 | 0.00 | 0.00 | 51 | 1016.1 |
| 20260903013907 | 15 | 306 | 14.5 | 24.1 | 0.00 | 0.00 | 0.00 | 50 | 1016.1 |
| 20260903012907 | 16 | 293 | 12.9 | 22.5 | 0.00 | 0.00 | 0.00 | 49 | 1016.1 |
| 20260903011907 | 16 | 292 | 8.0 | 25.7 | 0.00 | 0.00 | 0.00 | 46 | 1016.1 |
| 20260903010907 | 16 | 293 | 9.7 | 22.5 | 0.00 | 0.00 | 0.00 | 47 | 1016.1 |
| 20260903005907 | 16 | 304 | 11.3 | 19.3 | 0.00 | 0.00 | 0.00 | 46 | 1016.1 |
| 20260903004907 | 16 | 301 | 14.5 | 20.9 | 0.00 | 0.00 | 0.00 | 47 | 1016.1 |
| 20260903003918 | 17 | 308 | 12.9 | 20.9 | 0.00 | 0.00 | 0.00 | 43 | 1016.1 |
| 20260903002907 | 17 | 309 | 12.9 | 24.1 | 0.00 | 0.00 | 0.00 | 41 | 1016.1 |
| 20260903001908 | 17 | 285 | 9.7 | 24.1 | 0.00 | 0.00 | 0.00 | 42 | 1016.1 |
| 20260903000907 | 17 | 304 | 14.5 | 22.5 | 0.00 | 0.00 | 0.00 | 40 | 1016.1 |
| 20260902235907 | 17 | 294 | 11.3 | 24.1 | 0.00 | 0.00 | 0.00 | 40 | 1016.1 |
| 20260902234907 | 17 | 293 | 12.9 | 27.4 | 0.00 | 0.00 | 0.00 | 40 | 1016.2 |
| 20260902233910 | 17 | 300 | 14.5 | 22.5 | 0.00 | 0.00 | 0.00 | 43 | 1016.2 |
| 20260902232907 | 17 | 296 | 9.7 | 27.4 | 0.00 | 0.00 | 0.00 | 45 | 1016.3 |
| 20260902231907 | 17 | 287 | 9.7 | 30.6 | 0.00 | 0.00 | 0.00 | 46 | 1016.5 |
| 20260902230907 | 17 | 274 | 16.1 | 25.7 | 0.00 | 0.00 | 0.00 | 44 | 1016.6 |
| 20260902225907 | 17 | 289 | 19.3 | 33.8 | 0.00 | 0.00 | 0.00 | 42 | 1016.7 |
| 20260902224907 | 17 | 285 | 17.7 | 32.2 | 0.00 | 0.00 | 0.00 | 46 | 1016.6 |
| 20260902223907 | 17 | 293 | 20.9 | 29.0 | 0.00 | 0.00 | 0.00 | 44 | 1016.7 |
| 20260902222908 | 17 | 284 | 12.9 | 33.8 | 0.00 | 0.00 | 0.00 | 49 | 1016.9 |
| 20260902221907 | 17 | 270 | 20.9 | 33.8 | 0.00 | 0.00 | 0.00 | 47 | 1016.8 |
| 20260902220907 | 17 | 276 | 17.7 | 41.8 | 0.00 | 0.00 | 0.00 | 47 | 1016.8 |
| 20260902215907 | 17 | 289 | 14.5 | 32.2 | 0.00 | 0.00 | 0.00 | 49 | 1016.9 |
| 20260902214907 | 17 | 307 | 11.3 | 40.2 | 0.00 | 0.00 | 0.00 | 50 | 1017.0 |
| 20260902213907 | 17 | 289 | 14.5 | 37.0 | 0.00 | 0.00 | 0.00 | 47 | 1017.0 |
| 20260902212907 | 17 | 258 | 14.5 | 33.8 | 0.00 | 0.00 | 0.00 | 50 | 1017.1 |
| 20260902212004 | 17 | 286 | 8.0 | 32.2 | 0.00 | 0.00 | 0.00 | 50 | 1017.1 |
| 20260902211907 | 17 | 286 | 8.0 | 32.2 | 0.00 | 0.00 | 0.00 | 50 | 1017.1 |
| 20260902210908 | 17 | 284 | 11.3 | 32.2 | 0.00 | 0.00 | 0.00 | 52 | 1017.2 |
| 20260902205907 | 17 | 264 | 11.3 | 25.7 | 0.00 | 0.00 | 0.00 | 56 | 1017.3 |
| 20260902204907 | 17 | 274 | 9.7 | 30.6 | 0.00 | 0.00 | 0.00 | 54 | 1017.4 |
| 20260902203907 | 17 | 282 | 9.7 | 30.6 | 0.00 | 0.00 | 0.00 | 51 | 1017.5 |
| 20260902202907 | 17 | 293 | 12.9 | 29.0 | 0.00 | 0.00 | 0.00 | 54 | 1017.5 |
| 20260902201909 | 17 | 261 | 12.9 | 27.4 | 0.00 | 0.00 | 0.00 | 59 | 1017.6 |
| 20260902200907 | 16 | 262 | 17.7 | 32.2 | 0.00 | 0.00 | 0.00 | 57 | 1017.7 |
| 20260902195907 | 16 | 276 | 12.9 | 25.7 | 0.00 | 0.00 | 0.00 | 56 | 1017.9 |
| 20260902194907 | 16 | 267 | 9.7 | 25.7 | 0.00 | 0.00 | 0.00 | 57 | 1018.0 |
| 20260902193907 | 16 | 249 | 9.7 | 22.5 | 0.00 | 0.00 | 0.00 | 55 | 1018.1 |
| 20260902192907 | 16 | 238 | 9.7 | 24.1 | 0.00 | 0.00 | 0.00 | 58 | 1018.2 |
| 20260902191907 | 17 | 258 | 9.7 | 22.5 | 0.00 | 0.00 | 0.00 | 57 | 1018.2 |
| 20260902190907 | 16 | 260 | 9.7 | 17.7 | 0.00 | 0.00 | 0.00 | 61 | 1018.3 |
| 20260902185907 | 16 | 294 | 4.8 | 17.7 | 0.00 | 0.00 | 0.00 | 57 | 1018.4 |
| 20260902184907 | 16 | 245 | 8.0 | 17.7 | 0.00 | 0.00 | 0.00 | 58 | 1018.4 |
| 20260902183907 | 15 | 258 | 9.7 | 22.5 | 0.00 | 0.00 | 0.00 | 61 | 1018.4 |
| 20260902182907 | 15 | 261 | 12.9 | 22.5 | 0.00 | 0.00 | 0.00 | 60 | 1018.5 |
| 20260902181907 | 16 | 259 | 12.9 | 24.1 | 0.00 | 0.00 | 0.00 | 62 | 1018.6 |
| 20260902180907 | 16 | 247 | 11.3 | 20.9 | 0.00 | 0.00 | 0.00 | 60 | 1018.7 |
| 20260902175907 | 15 | 250 | 8.0 | 20.9 | 0.00 | 0.00 | 0.00 | 59 | 1018.7 |
| 20260902174907 | 15 | 209 | 4.8 | 22.5 | 0.00 | 0.00 | 0.00 | 60 | 1018.7 |
| 20260902173907 | 15 | 256 | 6.4 | 16.1 | 0.00 | 0.00 | 0.00 | 61 | 1018.7 |
| 20260902172907 | 15 | 262 | 4.8 | 19.3 | 0.00 | 0.00 | 0.00 | 64 | 1018.7 |
| 20260902171907 | 15 | 260 | 9.7 | 22.5 | 0.00 | 0.00 | 0.00 | 66 | 1018.6 |
| 20260902170907 | 15 | 263 | 9.7 | 19.3 | 0.00 | 0.00 | 0.00 | 63 | 1018.6 |
| 20260902165907 | 14 | 265 | 12.9 | 20.9 | 0.00 | 0.00 | 0.00 | 66 | 1018.6 |
| 20260902164907 | 14 | 266 | 8.0 | 24.1 | 0.00 | 0.00 | 0.00 | 66 | 1018.5 |
| 20260902163907 | 15 | 266 | 9.7 | 20.9 | 0.00 | 0.00 | 0.00 | 66 | 1018.4 |
| 20260902162909 | 14 | 268 | 9.7 | 19.3 | 0.00 | 0.00 | 0.00 | 64 | 1018.4 |
| 20260902161907 | 14 | 241 | 4.8 | 14.5 | 0.00 | 0.00 | 0.00 | 62 | 1018.4 |
| 20260902160907 | 14 | 287 | 6.4 | 19.3 | 0.00 | 0.00 | 0.00 | 62 | 1018.4 |
| 20260902155907 | 14 | 273 | 11.3 | 20.9 | 0.00 | 0.00 | 0.00 | 61 | 1018.3 |
| 20260902154907 | 14 | 272 | 9.7 | 22.5 | 0.00 | 0.00 | 0.00 | 60 | 1018.3 |
| 20260902153907 | 13 | 269 | 12.9 | 20.9 | 0.00 | 0.00 | 0.00 | 61 | 1018.1 |
| 20260902152907 | 13 | 259 | 11.3 | 20.9 | 0.00 | 0.00 | 0.00 | 63 | 1018.1 |
| 20260902151907 | 13 | 251 | 8.0 | 19.3 | 0.00 | 0.00 | 0.00 | 60 | 1018.0 |
| 20260902150907 | 13 | 255 | 9.7 | 14.5 | 0.00 | 0.00 | 0.00 | 61 | 1018.1 |
| 20260902145907 | 13 | 240 | 4.8 | 16.1 | 0.00 | 0.00 | 0.00 | 61 | 1018.1 |
| 20260902144907 | 13 | 262 | 4.8 | 16.1 | 0.00 | 0.00 | 0.00 | 63 | 1018.0 |
| 20260902143907 | 13 | 264 | 6.4 | 16.1 | 0.00 | 0.00 | 0.00 | 63 | 1018.0 |
| 20260902142908 | 13 | 267 | 8.0 | 14.5 | 0.00 | 0.00 | 0.00 | 62 | 1018.0 |
| 20260902141907 | 13 | 273 | 6.4 | 14.5 | 0.00 | 0.00 | 0.00 | 64 | 1017.9 |
| 20260902140907 | 13 | 280 | 8.0 | 16.1 | 0.00 | 0.00 | 0.00 | 65 | 1017.9 |
| 20260902135907 | 13 | 273 | 11.3 | 16.1 | 0.00 | 0.00 | 0.00 | 64 | 1017.8 |
| 20260902134908 | 13 | 275 | 9.7 | 17.7 | 0.00 | 0.00 | 0.00 | 65 | 1017.7 |
| 20260902133907 | 13 | 278 | 11.3 | 17.7 | 0.00 | 0.00 | 0.00 | 65 | 1017.7 |
| 20260902132907 | 13 | 281 | 14.5 | 20.9 | 0.00 | 0.00 | 0.00 | 64 | 1017.6 |
| 20260902131907 | 12 | 284 | 14.5 | 19.3 | 0.00 | 0.00 | 0.00 | 68 | 1017.6 |
| 20260902130907 | 12 | 289 | 12.9 | 19.3 | 0.00 | 0.00 | 0.00 | 71 | 1017.5 |
| 20260902125907 | 12 | 289 | 14.5 | 19.3 | 0.00 | 0.00 | 0.00 | 70 | 1017.5 |
| 20260902124907 | 12 | 294 | 14.5 | 19.3 | 0.00 | 0.00 | 0.00 | 70 | 1017.3 |
| 20260902123907 | 12 | 296 | 14.5 | 19.3 | 0.00 | 0.00 | 0.00 | 70 | 1017.3 |
| 20260902122908 | 12 | 297 | 12.9 | 17.7 | 0.00 | 0.00 | 0.00 | 69 | 1017.2 |
| 20260902121907 | 12 | 299 | 11.3 | 17.7 | 0.00 | 0.00 | 0.00 | 69 | 1017.2 |
| 20260902120908 | 12 | 300 | 12.9 | 19.3 | 0.00 | 0.00 | 0.00 | 68 | 1017.2 |
| 20260902115907 | 12 | 301 | 12.9 | 19.3 | 0.00 | 0.00 | 0.00 | 68 | 1017.1 |
| 20260902114907 | 12 | 304 | 12.9 | 17.7 | 0.00 | 0.00 | 0.00 | 67 | 1017.1 |
| 20260902113907 | 12 | 303 | 12.9 | 17.7 | 0.00 | 0.00 | 0.00 | 67 | 1017.1 |
| 20260902112908 | 12 | 299 | 12.9 | 19.3 | 0.00 | 0.00 | 0.00 | 66 | 1017.1 |
| 20260902111907 | 12 | 297 | 12.9 | 22.5 | 0.00 | 0.00 | 0.00 | 61 | 1017.1 |
| 20260902110907 | 12 | 293 | 14.5 | 19.3 | 0.00 | 0.00 | 0.00 | 62 | 1017.1 |
| 20260902105907 | 13 | 300 | 12.9 | 22.5 | 0.00 | 0.00 | 0.00 | 60 | 1017.1 |
| 20260902104406 | 13 | 292 | 16.1 | 22.5 | 0.00 | 0.00 | 0.00 | 58 | 1017.2 |
| 20260902103406 | 13 | 282 | 16.1 | 25.7 | 0.00 | 0.00 | 0.00 | 57 | 1017.2 |
| 20260902102406 | 13 | 287 | 14.5 | 25.7 | 0.00 | 0.00 | 0.00 | 58 | 1017.3 |
| 20260902101406 | 13 | 291 | 14.5 | 30.6 | 0.00 | 0.00 | 0.00 | 58 | 1017.3 |
| 20260902100406 | 13 | 302 | 14.5 | 25.7 | 0.00 | 0.00 | 0.00 | 58 | 1017.3 |
| 20260902095406 | 13 | 301 | 16.1 | 24.1 | 0.00 | 0.00 | 0.00 | 59 | 1017.3 |
| 20260902094406 | 13 | 295 | 14.5 | 22.5 | 0.00 | 0.00 | 0.00 | 58 | 1017.3 |
| 20260902093406 | 13 | 299 | 16.1 | 25.7 | 0.00 | 0.00 | 0.00 | 58 | 1017.3 |
| 20260902092406 | 13 | 295 | 16.1 | 20.9 | 0.00 | 0.00 | 0.00 | 57 | 1017.3 |
| 20260902091407 | 13 | 292 | 14.5 | 27.4 | 0.00 | 0.00 | 0.00 | 58 | 1017.4 |
| 20260902090406 | 13 | 283 | 14.5 | 27.4 | 0.00 | 0.00 | 0.00 | 58 | 1017.4 |
| 20260902085406 | 13 | 299 | 14.5 | 24.1 | 0.00 | 0.00 | 0.00 | 57 | 1017.5 |